Home > Weather > Horten > Past weeks

Flag for Norway Past Weather in Horten, Norway — Yesterday and Last 2 Weeks

Now
54 °F

Passing clouds.


Feels Like: 47 °F
Forecast: 54 / 60 °F
Wind: 28 mph from South

Location: Oseberg

Current Time: Jul 1, 2016 at 1:18:57 AM

Latest Report: Jul 1, 2016 at 12:50 AM


Visibility: N/A

Pressure: 29.56 "Hg

Humidity: 94%

Dew Point: 52 °F

Location of HortenLocation

Past Weather in Horten — Graph

°F

Horten Temperature Yesterday

Maximum temperature yesterday: 55 °F (at 4:50 PM)
Minimum temperature yesterday: 52 °F (at 6:50 AM)
Average temperature yesterday: 53 °F

High & Low Weather Summary for the Past Weeks

 TemperatureHumidityPressure
High57 °F (Jun 24, 11:50 AM)100% (Jun 17, 4:50 AM)30.09 "Hg (Jun 17, 4:50 AM)
Low48 °F (Jun 18, 1:20 AM)54% (Jun 19, 1:20 PM)29.36 "Hg (Jun 30, 12:20 PM)
Average52 °F90%29.81 "Hg
* Reported Jun 15 11:50 PM — Jun 30 11:50 PM, Horten, Weather by CustomWeather, © 2016

Note: Actual official high and low records may vary slightly from our data, if they occured in-between our weather recording intervals... More about our weather records

Advertising

Horten Weather History for the Previous 24 Hours

Scroll right to see more
 ConditionsComfort  
Time TempWeatherWind HumidityBarometerVisibility
11:50 PM
Thu, Jun 30
54 °FPassing clouds.24 mph94%29.59 "HgN/A
10:50 PM54 °FPassing clouds.23 mph88%29.59 "HgN/A
9:50 PM54 °FPassing clouds.21 mph88%29.59 "HgN/A
8:50 PM54 °FPassing clouds.21 mph88%29.59 "HgN/A
7:50 PM54 °FPassing clouds.22 mph88%29.56 "HgN/A
6:50 PM54 °FPassing clouds.25 mph82%29.56 "HgN/A
5:50 PM54 °FScattered clouds.22 mph82%29.53 "HgN/A
5:20 PM55 °FScattered clouds.22 mph82%29.53 "HgN/A
4:50 PM55 °FScattered showers. Scattered clouds.24 mph82%29.53 "HgN/A
4:20 PM54 °FScattered showers. Partly sunny.22 mph88%29.50 "HgN/A
3:50 PM54 °FPartly sunny.18 mph88%29.47 "Hg6 mi
3:20 PM54 °FBroken clouds.20 mph88%29.47 "Hg5 mi
2:50 PM52 °FRain showers. Mostly cloudy.22 mph94%29.45 "Hg4 mi
2:20 PM52 °FRain showers. Broken clouds.24 mph94%29.45 "Hg4 mi
1:50 PM52 °FSprinkles. Broken clouds.24 mph94%29.39 "Hg5 mi
12:50 PM54 °FSprinkles. Broken clouds.13 mph94%29.39 "Hg6 mi
12:20 PM54 °FRain showers. Partly sunny.20 mph94%29.36 "HgN/A
11:20 AM54 °FSprinkles. Partly sunny.20 mph94%29.39 "Hg5 mi
10:50 AM54 °FRain showers. Partly sunny.20 mph94%29.39 "Hg4 mi
10:20 AM54 °FRain showers. Broken clouds.22 mph94%29.39 "Hg5 mi
9:50 AM52 °FLight rain. Low clouds.17 mph100%29.39 "Hg5 mi
9:20 AM52 °FLight rain. Fog.21 mph100%29.39 "Hg2 mi
8:50 AM54 °FPartly sunny.17 mph94%29.42 "Hg4 mi
7:50 AM52 °FLight rain. More clouds than sun.12 mph94%29.42 "Hg5 mi
7:20 AM52 °FLight rain. More clouds than sun.14 mph94%29.42 "Hg5 mi
6:50 AM52 °FSprinkles. Overcast.8 mph94%29.45 "Hg5 mi
5:50 AM54 °FSprinkles. Overcast.20 mph88%29.47 "Hg6 mi
4:50 AM54 °FPartly cloudy.28 mph94%29.47 "HgN/A
3:50 AM54 °FPartly cloudy.24 mph94%29.47 "HgN/A
3:20 AM54 °FPassing clouds.16 mph94%29.47 "HgN/A
2:20 AM54 °FPassing clouds.21 mph100%29.50 "HgN/A
1:50 AM54 °FPassing clouds.24 mph94%29.50 "HgN/A
Weather by CustomWeather, © 2016

See weather overviewHow to use our weather pages